www.pogodaiklimat.ru

АРХИВ ПОГОДЫ в Кернее

Время (UTC), дата Ветер
(напр.,м/с)
 
Видим.   Явления Облачность Т
(С)
Тd
(С)
f
(%)
Тe
(С)
Тes
(С)
Комфортность

P
(гПа)

Po
(гПа)
Тmin
(С)
Tmax
(С)
R
(мм)
SD
(см)
10:56 22.04 С  13 км    10/10 1500 м  +4.0  +3.0  93  -1  -1    1024.7  947.1  +3.9       
11:56 22.04 С  16 км    10/10 1800 м  +5.0  +3.9  93  +2  +2    1025.3  947.7         
12:56 22.04 С  16 км    10/10 1950 м  +6.1  +3.9  86  +2  +2    1025.1  947.7         
13:56 22.04 С  16 км    10/10 1950 м  +7.2  +4.4  82  +3  +3    1025.3  948.0         
14:56 22.04 СВ  16 км    2/2 1950 м  +9.4  +4.4  71  +6  +8    1025.2  948.0         
15:56 22.04 СВ  16 км    ясно  +11.7  +3.3  56  +10  +18    1024.9  947.7         
16:56 22.04 В  16 км    ясно  +13.0  +3.0  51  +11  +20    1024.0  947.1  +4.4       
17:56 22.04 СВ  16 км    ясно  +14.4  +2.8  46  +14  +28  опасность
простуды 
1023.4  946.5         
18:56 22.04 В  16 км    ясно  +15.0  +2.8  44  +14  +22    1022.8  946.1         
19:56 22.04 СВ  16 км    ясно  +15.6  +2.2  40  +15  +26  опасность
простуды 
1022.1  945.5         
20:56 22.04 С  16 км    ясно  +16.1  +2.8  41  +16  +26    1021.3  944.9         
21:56 22.04 В  16 км    ясно  +16.7  +3.3  41  +16  +20    1021.1  944.6         
22:56 22.04 В  16 км    8/8 1950 м  +16.7  +2.2  38  +17  +17    1021.0  944.6         
23:56 22.04 штиль  16 км    10/10 1950 м  +15.6  +4.4  47  +16  +16    1020.9  944.6         
00:56 23.04 ЮВ  16 км    8/8 1950 м  +12.8  +4.4  57  +11  +11    1021.7  945.2         
01:56 23.04 Ю  16 км    10/0 2100 м
[средняя] 
+11.1  +4.4  63  +10  +10    1022.2  945.5         
02:56 23.04 штиль  16 км    10/10 1950 м  +11.7  +3.9  59  +11  +11    1022.3  945.8         
03:56 23.04 штиль  16 км    10/10 1950 м  +11.1  +5.0  66  +11  +11    1021.9  945.5         
04:56 23.04 СЗ  16 км    10/10 1950 м  +10.6  +5.0  68  +9  +9    1021.7  945.5         
05:56 23.04 З  16 км    10/0 2100 м
[средняя] 
+11.1  +5.0  66  +10  +10    1021.8  945.5         
06:56 23.04 СЗ  16 км    10/0 2100 м
[средняя] 
+10.0  +5.6  74  +9  +9    1021.5  945.2         
07:56 23.04 СЗ  16 км    10/0 2250 м
[средняя] 
+8.3  +5.0  80  +6  +6    1021.5  945.2         
08:56 23.04 штиль  16 км    10/0 2250 м
[средняя] 
+6.7  +3.3  79  +6  +6    1021.7  945.5         
09:56 23.04 СЗ  16 км    5/0 2250 м
[средняя] 
+5.6  +3.3  85  +3  +3    1021.9  945.5         
10:56 23.04 штиль  16 км    ясно  +3.3  +1.7  89  +2  +2    1022.5  945.8         
11:56 23.04 СЗ  16 км    ясно  +5.6  +3.3  85  +4  +4    1022.8  946.1         
12:56 23.04 штиль  16 км    ясно  +10.0  +4.4  68  +10  +11    1022.5  946.1         
13:56 23.04 В  16 км    ясно  +13.9  +3.9  51  +13  +17    1021.9  945.8         
14:56 23.04 ЮВ  16 км    ясно  +16.1  +3.9  44  +17  +25    1021.8  945.8         
15:56 23.04 Ю  16 км    ясно  +17.2  +3.9  41  +17  +22    1021.5  945.5         
16:56 23.04 В  16 км    ясно  +18.3  +3.9  38  +18  +29    1021.1  945.2         
17:27 23.04 ЮВ  16 км    2/2 90 м  +19.0  +4.0  37  +19  +28      944.6         
17:56 23.04 В  16 км    ясно  +19.4  +3.9  36  +19  +26    1020.0  944.3         
18:56 23.04 Ю  6
{8} 
16 км    5/0 2100 м
[средняя] 
+20.0  +3.9  35  +20  +24    1019.3  943.6         
19:56 23.04 Ю  16 км    2/0 2100 м
[средняя] 
+20.0  +3.9  35  +21  +29  комфорт  1018.8  943.0         
20:56 23.04 ЮВ  16 км    ясно  +20.0  +3.3  33  +21  +30  комфорт  1018.0  942.4         
21:56 23.04 Ю  16 км    ясно  +20.0  +3.3  33  +21  +27  комфорт  1017.6  941.8         
22:56 23.04 ЮВ  16 км    ясно  +18.9  +4.4  38  +19  +22    1018.0  941.8         
23:56 23.04 ЮВ  16 км    ясно  +17.8  +5.0  43  +17  +18    1017.9  941.8         
00:56 24.04 ЮВ  16 км    ясно  +15.0  +5.0  51  +14  +14    1017.8  942.1         
01:56 24.04 ЮВ  16 км    ясно  +13.3  +5.0  57  +12  +12    1018.4  942.7         
02:56 24.04 штиль  16 км    5/0 2100 м
[средняя] 
+12.2  +5.0  61  +12  +12    1018.9  943.3         
03:56 24.04 СЗ  16 км    ясно  +10.6  +5.0  68  +10  +10    1019.6  943.6         
04:56 24.04 штиль  16 км    ясно  +9.4  +4.4  71  +9  +9    1019.8  944.0         
05:56 24.04 нст  16 км    2/0 2400 м
[средняя] 
+8.3  +4.4  76  +5  +5    1020.6  944.6         
06:56 24.04 штиль  16 км    ясно  +8.3  +3.9  74  +8  +8    1019.8  944.0         
07:56 24.04 штиль  16 км    ясно  +9.4  +3.9  68  +9  +9    1019.1  943.3         
08:56 24.04 СЗ  16 км    8/0 2400 м
[средняя] 
+7.8  +4.4  79  +5  +5    1019.8  944.0         

 

Местоположение метеостанции Kearney Municipal Airport: широта 40.7333 долгота -99.0000 высота над уровнем моря 650 м.

В архиве по умолчанию представлена погода в Кернее за последние 1-2 суток. Обновление информации о фактической погоде в базе происходит ежечасно! Архивные данные за месяц целиком и за предыдущие месяцы Вы можете получить, выбрав интересующий диапазон дат из раскрывающегося списка и нажав кнопку "Ввод!".

Внимание! Архив погоды МЕТАР в базе сайта в настоящее время начинается c 1 января 2013 г. Нет смысла пытаться выбрать более раннюю дату.

Внимание! Время в таблицах - всемирное. Для получения местного времени необходимо прибавить поправку, которая в Кернее равна -6 ч.

Ветер - указаны скорость ветра в м/с и направление, откуда дует ветер: С - северный, СВ - северо-восточный, В - восточный, ЮВ - юго-восточный, Ю - южный, ЮЗ - юго-западный, З - западный, СЗ - северо-западный.
Видимость - горизонтальная дальность видимости в метрах или километрах. При видимости от 1 до 10 км при отсутствии осадков обычно наблюдается дымка, при ухудшении видимости до 1 км и менее - туман. В сухую погоду видимость может ухудшаться дымом, пылью или мглою.
Атмосферные явления - указаны явления, наблюдавшиеся в указанный момент времени.
Облачность - указаны через наклонную черту верхняя и нижняя облачность в баллах и высота нижней границы облаков в метрах. Внимание: облачность, как и прочие метеорологические величины в США измеряются автоматическими метеостанциями. Указанные значения в баллах носят условный характер и показывают процент времени, в течение которого, в среднем, лазерный луч высотомера отражался от облаков обратно.
T - Температура воздуха - температура, измеренная на высоте 2 м над землей.
Td - Температура точки росы - температура, при понижении до которой содержащийся в воздухе водяной пар достигнет насыщения.
f - Относительная влажность воздуха - влажноcть воздуха, измеренная на высоте 2 м над землей.
Te - Эффективная температура - температура, которую ощущает одетый по сезону человек в тени. Характеристика душности погоды. При расчете учитывается влияние влажности воздуха и скорости ветра на теплоощущения человека.
Tes - Эффективная температура на солнце - температура, которую ощущает человек, с поправкой на солнечный нагрев. Характеристика знойности погоды. Зависит от высоты солнца над горизонтом, облачности и скорости ветра. Ночью, в пасмурную погоду, а также при ветре 12 м/с и более поправка равна нулю.
P - Атмосферное давление - приведенное к уровню моря атмосферное давление.
Po - Атмосферное давление - измеренное на уровне метеостанции атмосферное давление.
Tmin - Минимальная температура - минимум температуры воздуха на высоте 2 м над землей.
Tmax - Максимальная температура - максимум температуры воздуха на высоте 2 м над землей.
R - Количество осадков - Количество выпавших осадков за 3 или 6 часов, мм.
SD - Снежный покров - Высота снежного покрова, см.